Radiation Dose measured at exhaust stack monitor of Fukushima Daiichi Nuclear Power Station
Date,Time,Unit 5 6 shared exhaust cylinders,Wind Direction,Wind Velocity(m/s)
2023/07/29,00:00,3.6,south-southwest,4.2
2023/07/29,00:10,3.6,south-southwest,3.9
2023/07/29,00:20,3.5,southwest,3.8
2023/07/29,00:30,3.6,southwest,3.5
2023/07/29,00:40,3.6,south-southwest,3.5
2023/07/29,00:50,3.7,south-southwest,3.2
2023/07/29,01:00,3.5,southwest,2.6
2023/07/29,01:10,3.5,south-southwest,2.8
2023/07/29,01:20,3.6,south-southwest,2.3
2023/07/29,01:30,3.5,south-southwest,2.6
2023/07/29,01:40,3.6,south-southwest,2.2
2023/07/29,01:50,3.6,south-southwest,2.2
2023/07/29,02:00,3.7,south-southwest,2.5
2023/07/29,02:10,3.7,southwest,2.0
2023/07/29,02:20,3.6,south-southwest,0.8
2023/07/29,02:30,3.5,northwest,0.8
2023/07/29,02:40,3.5,north-northeast,1.1
2023/07/29,02:50,3.6,northeast,1.5
2023/07/29,03:00,3.7,north-northeast,1.1
2023/07/29,03:10,3.8,north,2.0
2023/07/29,03:20,3.8,north-northwest,2.3
2023/07/29,03:30,3.6,northwest,2.2
2023/07/29,03:40,3.6,northwest,2.0
2023/07/29,03:50,3.7,northwest,1.9
2023/07/29,04:00,3.4,north-northwest,0.9
2023/07/29,04:10,3.6,west,1.1
2023/07/29,04:20,3.6,west-northwest,1.1
2023/07/29,04:30,3.7,northwest,1.5
2023/07/29,04:40,3.7,northwest,2.0
2023/07/29,04:50,3.5,west-northwest,2.2
2023/07/29,05:00,3.5,west-northwest,2.6
2023/07/29,05:10,3.5,north-northwest,2.9
2023/07/29,05:20,3.7,north-northwest,3.2
2023/07/29,05:30,3.8,north-northwest,3.5
2023/07/29,05:40,3.6,north-northwest,3.5
2023/07/29,05:50,3.6,north-northwest,2.8
2023/07/29,06:00,3.7,north-northwest,3.2
2023/07/29,06:10,3.6,north-northwest,2.9
2023/07/29,06:20,3.6,north,2.6
2023/07/29,06:30,3.6,north-northeast,2.6
2023/07/29,06:40,3.6,north,2.0
2023/07/29,06:50,3.7,north,1.7
2023/07/29,07:00,3.5,north-northwest,1.7
2023/07/29,07:10,3.6,north-northeast,1.4
2023/07/29,07:20,3.6,north,1.1
2023/07/29,07:30,3.4,north-northeast,1.2
2023/07/29,07:40,3.6,north-northeast,1.5
2023/07/29,07:50,3.7,northeast,1.4
2023/07/29,08:00,3.7,north-northeast,1.2
2023/07/29,08:10,3.8,northeast,1.1
2023/07/29,08:20,3.6,east,1.2
2023/07/29,08:30,3.7,east,1.1
2023/07/29,08:40,3.6,east-southeast,1.7
2023/07/29,08:50,3.6,east-southeast,1.7
2023/07/29,09:00,3.6,southeast,1.7
2023/07/29,09:10,3.7,southeast,1.5
2023/07/29,09:20,3.6,east-southeast,2.0
2023/07/29,09:30,3.5,east-southeast,1.9
2023/07/29,09:40,3.7,east-southeast,1.7
2023/07/29,09:50,3.5,east-southeast,2.8
2023/07/29,10:00,3.6,east-southeast,2.5
2023/07/29,10:10,3.6,east-southeast,2.6
2023/07/29,10:20,3.6,east-southeast,2.3
2023/07/29,10:30,3.5,east-southeast,1.5
2023/07/29,10:40,3.7,southeast,2.8
2023/07/29,10:50,3.6,southeast,3.8
2023/07/29,11:00,3.6,southeast,4.3
2023/07/29,11:10,3.6,southeast,4.3
2023/07/29,11:20,3.6,south-southeast,4.5
2023/07/29,11:30,3.6,south-southeast,6.2
2023/07/29,11:40,3.6,south-southeast,5.6
2023/07/29,11:50,3.5,south-southeast,6.1
2023/07/29,12:00,3.6,south-southeast,6.9
2023/07/29,12:10,3.7,south-southeast,7.1
2023/07/29,12:20,3.6,south-southeast,7.7
2023/07/29,12:30,3.5,south-southeast,5.5
2023/07/29,12:40,3.7,south-southeast,5.4
2023/07/29,12:50,3.7,south-southeast,5.8
2023/07/29,13:00,3.6,south,4.9
2023/07/29,13:10,3.5,south-southeast,5.1
2023/07/29,13:20,3.7,south,6.0
2023/07/29,13:30,3.6,south,6.1
2023/07/29,13:40,3.6,south,6.5
2023/07/29,13:50,3.6,south,6.6
2023/07/29,14:00,3.7,south-southeast,6.5
2023/07/29,14:10,3.6,south,6.8
2023/07/29,14:20,3.6,south,7.7
2023/07/29,14:30,3.6,south,6.7
2023/07/29,14:40,3.7,south,6.4
2023/07/29,14:50,3.6,south,6.8
2023/07/29,15:00,3.6,south,6.9
2023/07/29,15:10,3.6,south,6.6
2023/07/29,15:20,3.5,south,6.8
2023/07/29,15:30,3.7,south,6.6
2023/07/29,15:40,3.6,south,6.9
2023/07/29,15:50,3.6,south,7.5
2023/07/29,16:00,3.6,south,6.7
2023/07/29,16:10,3.6,south,6.9
2023/07/29,16:20,3.7,south,6.4
2023/07/29,16:30,3.6,south,6.7
2023/07/29,16:40,3.6,south,6.9
2023/07/29,16:50,3.6,south,8.0
2023/07/29,17:00,3.6,south,7.1
2023/07/29,17:10,3.6,south,7.5
2023/07/29,17:20,3.7,south,8.1
2023/07/29,17:30,3.8,south,6.8
2023/07/29,17:40,3.9,south,5.9
2023/07/29,17:50,3.6,south,5.7
2023/07/29,18:00,3.6,south,5.8
2023/07/29,18:10,3.5,south,5.5
2023/07/29,18:20,3.6,south,5.3
2023/07/29,18:30,3.7,south,5.7
2023/07/29,18:40,3.7,south,6.3
2023/07/29,18:50,3.6,south,6.4
2023/07/29,19:00,3.4,south,5.8
2023/07/29,19:10,3.6,south,6.2
2023/07/29,19:20,3.7,south,5.9
2023/07/29,19:30,3.6,south,5.5
2023/07/29,19:40,3.6,south,5.5
2023/07/29,19:50,3.5,south,4.8
2023/07/29,20:00,3.7,south,4.3
2023/07/29,20:10,3.5,south,4.5
2023/07/29,20:20,3.6,south,4.5
2023/07/29,20:30,3.6,south,4.1
2023/07/29,20:40,3.6,south,3.9
2023/07/29,20:50,3.5,south-southwest,3.8
2023/07/29,21:00,3.7,south-southwest,3.8
2023/07/29,21:10,3.5,south-southwest,3.4
2023/07/29,21:20,3.5,south-southwest,2.6
2023/07/29,21:30,3.6,south-southwest,2.9
2023/07/29,21:40,3.5,south-southwest,2.8
2023/07/29,21:50,3.7,south-southwest,2.6
2023/07/29,22:00,3.7,south-southwest,2.9
2023/07/29,22:10,3.6,south-southwest,2.6
2023/07/29,22:20,3.6,south-southwest,2.3
2023/07/29,22:30,3.6,south-southwest,2.2
2023/07/29,22:40,3.6,southwest,2.3
2023/07/29,22:50,3.7,west-southwest,1.9
2023/07/29,23:00,3.7,southwest,2.2
2023/07/29,23:10,3.6,southwest,2.8
2023/07/29,23:20,3.8,south-southwest,2.3
2023/07/29,23:30,3.7,south-southwest,2.3
2023/07/29,23:40,3.6,southwest,2.2
2023/07/29,23:50,3.5,south-southwest,3.0
